Regional Weather Roundup
Issued by NWS

Home | Current Version | Previous Version | Graphics & Text | Print | Product List | Glossary Off
Versions: 1 2 3 4 5 6 7 8 9 10 11 12 13 14 15 16 17 18 19 20 21 22 23 24 25 26 27 28 29 30 31 32 33 34 35 36 37 38 39 40 41 42 43 44 45 46 47 48 49 50

590
ASUS43 KTOP 290559
RWRKS

WEATHER ROUNDUP FOR KANSAS
NATIONAL WEATHER SERVICE GOODLAND KS
100 AM CDT WED MAR 29 2017

NOTE:  "FAIR" INDICATES FEW OR NO CLOUDS BELOW 12,000 FEET WITH NO
SIGNIFICANT WEATHER AND/OR OBSTRUCTIONS TO VISIBILITY.

KSZ001>006-013>018-027>032-041>047-290700-
NORTHWEST KANSAS

CITY           SKY/WX    TMP DP  RH WIND       PRES   REMARKS
GOODLAND       LGT RAIN  39  39 100 NE10      30.01R FOG     WCI  32
6HR MIN TEMP:  39; 6HR MAX TEMP:  41; 6HR PCP:  0.05;

HAYS             N/A     44  43  96 NE24      29.92F
HILL CITY      LGT RAIN  44  44 100 NE15      30.00R FOG
6HR MIN TEMP:  44; 6HR MAX TEMP:  46; 6HR PCP:  0.08;

RUSSELL        CLOUDY    46  44  93 NE18      29.90F
6HR MIN TEMP:  45; 6HR MAX TEMP:  47; 6HR PCP:  0.36;

$$

KSZ061>065-074>080-084>089-290700-
SOUTHWEST KANSAS

CITY           SKY/WX    TMP DP  RH WIND       PRES   REMARKS
DODGE CITY     CLOUDY    46  45  96 N17G25    29.85S
6HR MIN TEMP:  46; 6HR MAX TEMP:  47; 6HR PCP:  0.06;

ELKHART          N/A     41  35  79 N13         N/A
GARDEN CITY    LGT RAIN  44  42  93 NE23G30   29.88F FOG
6HR MIN TEMP:  44; 6HR MAX TEMP:  46; 6HR PCP:  0.05;

GREAT BEND     LGT RAIN  49  47  93 NE16      29.88F
LIBERAL        CLOUDY    46  41  81 N15       29.85R
$$

KSZ066>073-081>083-090>101-290700-
SOUTHEAST KANSAS

CITY           SKY/WX    TMP DP  RH WIND       PRES   REMARKS
CHANUTE        LGT RAIN  56  51  84 E20G28    29.75F
6HR MIN TEMP:  55; 6HR MAX TEMP:  61; 6HR PCP:  0.25;

COFFEYVILLE    CLOUDY    60  55  83 E17       29.69F
6HR MIN TEMP:  59; 6HR MAX TEMP:  62; 6HR PCP:  0.01;

MEDICINE LODGE   N/A     50  48  93 NE21G29   29.79S
NEWTON         HVY RAIN  49  48  97 N30G39    29.83F FOG
PARSONS        CLOUDY    58  53  84 E12G28    29.72F
6HR MIN TEMP:  57; 6HR MAX TEMP:  62; 6HR PCP:  0.14;

WICHITA INTL   TSTM      51  51 100 N20       29.87R FOG
6HR MIN TEMP:  51; 6HR MAX TEMP:  54; 6HR PCP:  1.87;

WICHITA JABRA  HVY RAIN  50  49  96 NW17G28   29.86R FOG
6HR MIN TEMP:  50; 6HR MAX TEMP:  54; 6HR PCP:  1.53;

WICHITA MCCONL HVY RAIN  50  48  93 N18G29    29.86R
WINFIELD       RAIN      52  50  93 N28G35    29.78F
6HR MIN TEMP:  52; 6HR MAX TEMP:  57; 6HR PCP:  1.91;

$$

KSZ007>012-019>026-033>040-048>060-102>105-290700-
NORTHEAST KANSAS

CITY           SKY/WX    TMP DP  RH WIND       PRES   REMARKS
CONCORDIA      LGT RAIN  46  46 100 N12       29.97R
6HR MIN TEMP:  46; 6HR MAX TEMP:  50; 6HR PCP:  0.56;

EMPORIA        HVY RAIN  50  50 100 NE18G26   29.86R FOG
6HR MIN TEMP:  50; 6HR MAX TEMP:  53; 6HR PCP:  0.75;

LAWRENCE       CLOUDY    54  50  86 NE18      29.92F
6HR MIN TEMP:  53; 6HR MAX TEMP:  54;

MANHATTAN      RAIN      51  49  92 NE14      29.97F FOG
6HR MIN TEMP:  51; 6HR MAX TEMP:  53; 6HR PCP:  0.29;

OLATHE IND     CLOUDY    53  49  86 E20G28    29.90F
6HR MIN TEMP:  52; 6HR MAX TEMP:  53;

OLATHE EXE     CLOUDY    52  50  93 E16G31    29.89F
6HR MIN TEMP:  52; 6HR MAX TEMP:  52;

SALINA         HVY RAIN  51  49  92 E22G35    29.88F FOG
6HR MIN TEMP:  50; 6HR MAX TEMP:  53; 6HR PCP:  0.96;

TOPEKA BILLARD LGT RAIN  53  51  93 NE12      29.96S
6HR MIN TEMP:  53; 6HR MAX TEMP:  54; 6HR PCP:  0.01;

TOPEKA FORBES  RAIN      53  50  89 N16G22    29.91F FOG
6HR MIN TEMP:  53; 6HR MAX TEMP:  54; 6HR PCP:  0.07;

$$




USA.gov is the U.S. government's official web portal to all federal, state and local government web resources and services.